BAW908 EGLL-EDDF

Flight info

Callsign BAW908
Flight time 1h 7m
Altitude 35000
Route BPK Q295 MATCH DCT REDFA DCT TACHA DCT NOLRU DCT DIXAT DIXAT1A
Aircraft B77W/H-SDE1E2E3FGHIJ2J3J4J5M1RWXY/LB1D1

Departure

Time 2026-05-05 11:41
Airport London Heathrow Airport (EGLL)

Arrival

Time 2026-05-05 12:48
Airport Frankfurt Main Airport (EDDF)
Time Latitude Longitude Altitude Speed Heading
2026-05-05 11:12 51.47048 -0.48241 92 ft 0 kts 90°
2026-05-05 11:32 51.47048 -0.48245 91 ft 2 kts 90°
2026-05-05 11:33 51.47048 -0.48272 94 ft 2 kts 94°
2026-05-05 11:33 51.47050 -0.48299 94 ft 2 kts 99°
2026-05-05 11:33 51.47054 -0.48324 93 ft 2 kts 111°
2026-05-05 11:33 51.47062 -0.48347 93 ft 2 kts 140°
2026-05-05 11:34 51.47076 -0.48358 93 ft 2 kts 177°
2026-05-05 11:34 51.47081 -0.48359 92 ft 0 kts 180°
2026-05-05 11:36 51.47077 -0.48359 93 ft 4 kts 180°
2026-05-05 11:36 51.47009 -0.48358 94 ft 11 kts 180°
2026-05-05 11:37 51.46934 -0.48359 94 ft 11 kts 180°
2026-05-05 11:37 51.46870 -0.48357 94 ft 2 kts 179°
2026-05-05 11:37 51.46857 -0.48357 94 ft 2 kts 179°
2026-05-05 11:37 51.46842 -0.48357 91 ft 4 kts 179°
2026-05-05 11:38 51.46806 -0.48356 93 ft 6 kts 179°
2026-05-05 11:38 51.46751 -0.48392 95 ft 13 kts 237°
2026-05-05 11:38 51.46742 -0.48587 92 ft 20 kts 269°
2026-05-05 11:38 51.46713 -0.48737 95 ft 13 kts 202°
2026-05-05 11:39 51.46631 -0.48758 95 ft 11 kts 195°
2026-05-05 11:39 51.46557 -0.48788 94 ft 11 kts 184°
2026-05-05 11:39 51.46488 -0.48743 95 ft 12 kts 136°
2026-05-05 11:39 51.46477 -0.48621 96 ft 13 kts 87°
2026-05-05 11:40 51.46480 -0.48438 93 ft 24 kts 90°
2026-05-05 11:40 51.46480 -0.48368 93 ft 0 kts 90°
2026-05-05 11:40 51.46480 -0.48301 93 ft 19 kts 90°
2026-05-05 11:40 51.46480 -0.47803 91 ft 80 kts 90°
2026-05-05 11:41 51.46483 -0.46543 96 ft 145 kts 89°
2026-05-05 11:41 51.46531 -0.44709 232 ft 177 kts 88°
2026-05-05 11:41 51.46499 -0.42723 813 ft 182 kts 90°
2026-05-05 11:41 51.46667 -0.40760 1483 ft 174 kts 56°
2026-05-05 11:42 51.47468 -0.39295 1917 ft 182 kts 46°
2026-05-05 11:42 51.48342 -0.37661 2146 ft 205 kts 48°
2026-05-05 11:42 51.49311 -0.35800 2403 ft 227 kts 49°
2026-05-05 11:42 51.50337 -0.33857 3166 ft 231 kts 49°
2026-05-05 11:43 51.51404 -0.31851 3816 ft 238 kts 49°
2026-05-05 11:43 51.52309 -0.29637 4508 ft 240 kts 72°
2026-05-05 11:43 51.52501 -0.26998 5278 ft 242 kts 90°
2026-05-05 11:43 51.52456 -0.24223 5779 ft 251 kts 90°
2026-05-05 11:44 51.52409 -0.21352 5997 ft 262 kts 91°
2026-05-05 11:44 51.52363 -0.18459 6010 ft 256 kts 90°
2026-05-05 11:44 51.52332 -0.15571 6011 ft 261 kts 90°
2026-05-05 11:44 51.52289 -0.12661 6227 ft 258 kts 91°
2026-05-05 11:45 51.52244 -0.09765 6798 ft 261 kts 91°
2026-05-05 11:45 51.52198 -0.06833 7545 ft 264 kts 91°
2026-05-05 11:45 51.52149 -0.03879 8290 ft 265 kts 91°
2026-05-05 11:45 51.52099 -0.00928 9052 ft 265 kts 91°
2026-05-05 11:46 51.52044 0.02085 9416 ft 284 kts 91°
2026-05-05 11:46 51.51986 0.05291 9301 ft 293 kts 91°
2026-05-05 11:46 51.51928 0.08499 9687 ft 283 kts 91°
2026-05-05 11:46 51.51869 0.11669 10330 ft 286 kts 91°
2026-05-05 11:47 51.51877 0.14885 10925 ft 289 kts 80°
2026-05-05 11:47 51.52586 0.17901 11542 ft 292 kts 56°
2026-05-05 11:47 51.53859 0.20498 12241 ft 299 kts 48°
2026-05-05 11:47 51.55288 0.23007 12936 ft 309 kts 46°
2026-05-05 11:48 51.58334 0.28175 14264 ft 327 kts 46°
2026-05-05 11:48 51.59903 0.30819 14883 ft 334 kts 46°
2026-05-05 11:48 51.61531 0.33555 15506 ft 343 kts 46°
2026-05-05 11:49 51.63205 0.36359 16233 ft 349 kts 46°
2026-05-05 11:49 51.64905 0.39192 17020 ft 354 kts 45°
2026-05-05 11:49 51.66711 0.41928 17811 ft 359 kts 42°
2026-05-05 11:49 51.68594 0.44616 18578 ft 364 kts 41°
2026-05-05 11:50 51.70511 0.47313 19301 ft 368 kts 41°
2026-05-05 11:50 51.72448 0.50024 20020 ft 371 kts 41°
2026-05-05 11:50 51.74414 0.52759 20776 ft 374 kts 41°
2026-05-05 11:50 51.76396 0.55505 21544 ft 377 kts 41°
2026-05-05 11:51 51.78396 0.58263 22340 ft 378 kts 41°
2026-05-05 11:51 51.80390 0.61048 23091 ft 381 kts 44°
2026-05-05 11:51 51.82204 0.64212 23278 ft 398 kts 53°
2026-05-05 11:51 51.83763 0.68007 23445 ft 414 kts 62°
2026-05-05 11:52 51.85037 0.72279 23594 ft 430 kts 69°
2026-05-05 11:52 51.86083 0.76916 23760 ft 445 kts 73°
2026-05-05 11:52 51.86966 0.81762 24108 ft 453 kts 76°
2026-05-05 11:52 51.87760 0.86734 24552 ft 459 kts 77°
2026-05-05 11:53 51.88517 0.91775 25050 ft 464 kts 78°
2026-05-05 11:53 51.89269 0.96885 25571 ft 467 kts 78°
2026-05-05 11:53 51.90027 1.02016 26081 ft 471 kts 78°
2026-05-05 11:53 51.90801 1.07198 26569 ft 475 kts 78°
2026-05-05 11:54 51.91587 1.12417 27030 ft 479 kts 78°
2026-05-05 11:54 51.92385 1.17687 27489 ft 483 kts 78°
2026-05-05 11:54 51.93190 1.22996 27950 ft 486 kts 78°
2026-05-05 11:54 51.93999 1.28341 28392 ft 490 kts 78°
2026-05-05 11:55 51.94812 1.33724 28815 ft 493 kts 78°
2026-05-05 11:55 51.95626 1.39140 29194 ft 497 kts 79°
2026-05-05 11:55 51.96447 1.44618 29564 ft 500 kts 79°
2026-05-05 11:55 51.97266 1.50108 29918 ft 503 kts 79°
2026-05-05 11:56 51.98086 1.55623 30300 ft 504 kts 79°
2026-05-05 11:56 51.98904 1.61142 30757 ft 502 kts 79°
2026-05-05 11:56 51.99707 1.66576 31208 ft 500 kts 78°
2026-05-05 11:56 52.00515 1.72068 31662 ft 499 kts 78°
2026-05-05 11:57 52.01316 1.77536 32078 ft 498 kts 78°
2026-05-05 11:57 52.02115 1.83009 32474 ft 498 kts 78°
2026-05-05 11:57 52.02912 1.88487 32892 ft 497 kts 78°
2026-05-05 11:57 52.03705 1.93956 33290 ft 496 kts 78°
2026-05-05 11:58 52.04492 1.99406 33693 ft 495 kts 78°
2026-05-05 11:58 52.05274 2.04841 34064 ft 494 kts 78°
2026-05-05 11:58 52.06056 2.10289 34342 ft 494 kts 78°
2026-05-05 11:58 52.06833 2.15730 34627 ft 494 kts 78°
2026-05-05 11:59 52.07607 2.21166 34884 ft 495 kts 78°
2026-05-05 11:59 52.08121 2.24788 34911 ft 498 kts 78°
2026-05-05 11:59 52.09675 2.35783 34970 ft 497 kts 78°
2026-05-05 12:00 52.11206 2.46680 34971 ft 492 kts 78°
2026-05-05 12:00 52.13061 2.57390 34984 ft 491 kts 73°
2026-05-05 12:01 52.15122 2.68015 34980 ft 492 kts 73°
2026-05-05 12:01 52.17161 2.78660 34980 ft 493 kts 74°
2026-05-05 12:02 52.19170 2.89366 34975 ft 494 kts 74°
2026-05-05 12:02 52.21157 3.00038 34973 ft 496 kts 74°
2026-05-05 12:03 52.23158 3.10832 34974 ft 497 kts 74°
2026-05-05 12:03 52.24639 3.21778 34973 ft 493 kts 90°
2026-05-05 12:04 52.24462 3.27333 34987 ft 490 kts 101°
2026-05-05 12:04 52.23707 3.32732 34978 ft 486 kts 112°
2026-05-05 12:04 52.21219 3.42967 34976 ft 486 kts 115°
2026-05-05 12:05 52.18665 3.53195 34968 ft 488 kts 114°
2026-05-05 12:05 52.16142 3.63497 34960 ft 490 kts 114°
2026-05-05 12:06 52.13640 3.73813 34958 ft 490 kts 114°
2026-05-05 12:06 52.11136 3.84132 34952 ft 490 kts 114°
2026-05-05 12:07 52.08638 3.94364 34942 ft 489 kts 114°
2026-05-05 12:07 52.06119 4.04625 34928 ft 488 kts 115°
2026-05-05 12:08 52.03594 4.14861 34919 ft 487 kts 115°
2026-05-05 12:08 52.01065 4.25063 34914 ft 487 kts 115°
2026-05-05 12:09 51.98531 4.35238 34911 ft 486 kts 116°
2026-05-05 12:09 51.95990 4.45396 34912 ft 485 kts 116°
2026-05-05 12:10 51.93443 4.55533 34910 ft 485 kts 116°
2026-05-05 12:10 51.90892 4.65638 34921 ft 485 kts 116°
2026-05-05 12:11 51.88326 4.75757 34924 ft 485 kts 116°
2026-05-05 12:11 51.85753 4.85857 34921 ft 485 kts 117°
2026-05-05 12:12 51.83173 4.95940 34931 ft 486 kts 117°
2026-05-05 12:12 51.80594 5.05975 34931 ft 486 kts 117°
2026-05-05 12:13 51.77990 5.16064 34918 ft 486 kts 117°
2026-05-05 12:13 51.75377 5.26138 34926 ft 486 kts 117°
2026-05-05 12:14 51.72756 5.36203 34918 ft 487 kts 117°
2026-05-05 12:14 51.70120 5.46277 34914 ft 487 kts 117°
2026-05-05 12:15 51.67478 5.56332 34917 ft 487 kts 117°
2026-05-05 12:15 51.64839 5.66333 34907 ft 487 kts 117°
2026-05-05 12:16 51.62179 5.76366 34913 ft 487 kts 118°
2026-05-05 12:16 51.59512 5.86383 34911 ft 487 kts 118°
2026-05-05 12:17 51.56833 5.96400 34911 ft 487 kts 118°
2026-05-05 12:17 51.54149 6.06397 34913 ft 487 kts 118°
2026-05-05 12:18 51.51468 6.16343 34905 ft 487 kts 118°
2026-05-05 12:18 51.48809 6.26353 34908 ft 489 kts 116°
2026-05-05 12:19 51.46339 6.36520 34905 ft 489 kts 115°
2026-05-05 12:19 51.43885 6.46713 34887 ft 490 kts 116°
2026-05-05 12:20 51.41390 6.56888 34887 ft 491 kts 116°
2026-05-05 12:20 51.38872 6.67041 34889 ft 491 kts 116°
2026-05-05 12:21 51.36334 6.77219 34883 ft 491 kts 116°
2026-05-05 12:21 51.35054 6.82321 34311 ft 499 kts 116°
2026-05-05 12:21 51.33755 6.87479 33553 ft 500 kts 116°
2026-05-05 12:22 51.32458 6.92644 32668 ft 500 kts 116°
2026-05-05 12:22 51.31167 6.97800 31814 ft 497 kts 115°
2026-05-05 12:22 51.29901 7.02865 30930 ft 484 kts 115°
2026-05-05 12:22 51.28667 7.07769 30255 ft 467 kts 115°
2026-05-05 12:23 51.27293 7.12307 29678 ft 455 kts 128°
2026-05-05 12:23 51.25210 7.16041 29087 ft 447 kts 143°
2026-05-05 12:23 51.22601 7.18702 28492 ft 444 kts 157°
2026-05-05 12:23 51.19764 7.20776 27925 ft 453 kts 158°
2026-05-05 12:24 51.16894 7.22923 27318 ft 454 kts 157°
2026-05-05 12:24 51.14066 7.25123 26718 ft 450 kts 156°
2026-05-05 12:24 51.11275 7.27333 26134 ft 446 kts 155°
2026-05-05 12:24 51.08524 7.29593 25565 ft 443 kts 155°
2026-05-05 12:25 51.05806 7.31854 24998 ft 439 kts 154°
2026-05-05 12:25 51.03109 7.34091 24471 ft 435 kts 154°
2026-05-05 12:25 51.00434 7.36299 23963 ft 431 kts 154°
2026-05-05 12:25 50.97780 7.38482 23444 ft 427 kts 154°
2026-05-05 12:26 50.95185 7.40613 22852 ft 424 kts 154°
2026-05-05 12:26 50.92543 7.42782 22305 ft 420 kts 154°
2026-05-05 12:26 50.89999 7.44868 21792 ft 416 kts 154°
2026-05-05 12:26 50.87440 7.46962 21274 ft 411 kts 154°
2026-05-05 12:27 50.84909 7.49031 20795 ft 408 kts 154°
2026-05-05 12:27 50.82386 7.51090 20307 ft 407 kts 154°
2026-05-05 12:27 50.79874 7.53138 19826 ft 406 kts 154°
2026-05-05 12:27 50.77359 7.55186 19339 ft 406 kts 154°
2026-05-05 12:28 50.74852 7.57228 18856 ft 404 kts 154°
2026-05-05 12:28 50.72355 7.59257 18376 ft 402 kts 154°
2026-05-05 12:28 50.69876 7.61270 17845 ft 399 kts 154°
2026-05-05 12:28 50.67416 7.63263 17315 ft 396 kts 154°
2026-05-05 12:29 50.64979 7.65237 16837 ft 392 kts 154°
2026-05-05 12:29 50.62561 7.67193 16351 ft 388 kts 154°
2026-05-05 12:29 50.60168 7.69126 15881 ft 385 kts 154°
2026-05-05 12:29 50.57825 7.71016 15451 ft 382 kts 154°
2026-05-05 12:30 50.55471 7.72911 15032 ft 379 kts 154°
2026-05-05 12:30 50.53128 7.74794 14599 ft 377 kts 154°
2026-05-05 12:30 50.50795 7.76669 14177 ft 376 kts 154°
2026-05-05 12:30 50.48464 7.78543 13765 ft 375 kts 154°
2026-05-05 12:31 50.46146 7.80402 13305 ft 375 kts 154°
2026-05-05 12:31 50.43827 7.82266 12838 ft 373 kts 153°
2026-05-05 12:31 50.41657 7.84442 12472 ft 369 kts 144°
2026-05-05 12:31 50.39656 7.86944 12131 ft 365 kts 141°
2026-05-05 12:32 50.37727 7.89484 11788 ft 359 kts 141°
2026-05-05 12:32 50.35825 7.91957 11460 ft 353 kts 142°
2026-05-05 12:32 50.33936 7.94362 11131 ft 348 kts 142°
2026-05-05 12:32 50.32060 7.96709 10798 ft 343 kts 143°
2026-05-05 12:33 50.30208 7.99005 10495 ft 338 kts 143°
2026-05-05 12:33 50.28372 8.01270 10174 ft 333 kts 143°
2026-05-05 12:33 50.26571 8.03507 9859 ft 327 kts 140°
2026-05-05 12:33 50.25035 8.06020 9783 ft 309 kts 130°
2026-05-05 12:34 50.23776 8.08596 9655 ft 289 kts 128°
2026-05-05 12:34 50.22634 8.11040 9356 ft 274 kts 128°
2026-05-05 12:34 50.21525 8.13393 9291 ft 267 kts 128°
2026-05-05 12:34 50.20389 8.15766 9199 ft 277 kts 128°
2026-05-05 12:35 50.19222 8.18172 9041 ft 277 kts 128°
2026-05-05 12:35 50.18060 8.20552 8865 ft 274 kts 129°
2026-05-05 12:35 50.16913 8.22887 8715 ft 269 kts 129°
2026-05-05 12:35 50.15782 8.25184 8559 ft 265 kts 129°
2026-05-05 12:36 50.14657 8.27459 8421 ft 264 kts 129°
2026-05-05 12:36 50.13528 8.29723 8283 ft 264 kts 129°
2026-05-05 12:36 50.12403 8.31978 8136 ft 265 kts 129°
2026-05-05 12:36 50.11272 8.34251 7985 ft 265 kts 129°
2026-05-05 12:37 50.10329 8.36679 7787 ft 263 kts 108°
2026-05-05 12:37 50.10205 8.39483 7697 ft 268 kts 82°
2026-05-05 12:37 50.10758 8.42279 7569 ft 274 kts 71°
2026-05-05 12:37 50.11436 8.45073 7399 ft 276 kts 71°
2026-05-05 12:38 50.12117 8.47862 7207 ft 274 kts 71°
2026-05-05 12:38 50.12786 8.50607 7015 ft 265 kts 71°
2026-05-05 12:38 50.13435 8.53279 6744 ft 261 kts 71°
2026-05-05 12:38 50.14069 8.55910 6526 ft 257 kts 71°
2026-05-05 12:39 50.14682 8.58459 6478 ft 245 kts 71°
2026-05-05 12:39 50.15281 8.60968 6486 ft 250 kts 71°
2026-05-05 12:39 50.15884 8.63507 6323 ft 248 kts 71°
2026-05-05 12:39 50.16476 8.65996 6171 ft 240 kts 71°
2026-05-05 12:40 50.17050 8.68411 6022 ft 235 kts 71°
2026-05-05 12:40 50.17614 8.70784 5890 ft 234 kts 71°
2026-05-05 12:40 50.18179 8.73168 5713 ft 230 kts 72°
2026-05-05 12:40 50.18721 8.75455 5636 ft 226 kts 71°
2026-05-05 12:41 50.19268 8.77768 5522 ft 229 kts 71°
2026-05-05 12:41 50.19823 8.80118 5396 ft 232 kts 71°
2026-05-05 12:41 50.20226 8.82526 5250 ft 229 kts 92°
2026-05-05 12:41 50.19815 8.84863 5136 ft 224 kts 126°
2026-05-05 12:42 50.18725 8.86494 5052 ft 215 kts 155°
2026-05-05 12:42 50.17313 8.87224 5050 ft 216 kts 167°
2026-05-05 12:42 50.15830 8.87761 5004 ft 220 kts 168°
2026-05-05 12:42 50.14358 8.88013 4964 ft 206 kts 191°
2026-05-05 12:43 50.13146 8.86994 4993 ft 200 kts 230°
2026-05-05 12:43 50.12412 8.85108 4891 ft 213 kts 240°
2026-05-05 12:43 50.11726 8.82992 4556 ft 222 kts 245°
2026-05-05 12:43 50.11134 8.80788 4240 ft 216 kts 248°
2026-05-05 12:44 50.10619 8.78657 3932 ft 205 kts 249°
2026-05-05 12:44 50.10137 8.76622 3646 ft 201 kts 249°
2026-05-05 12:44 50.09655 8.74597 3402 ft 191 kts 250°
2026-05-05 12:44 50.09203 8.72702 3111 ft 180 kts 250°
2026-05-05 12:45 50.08789 8.70963 2892 ft 167 kts 250°
2026-05-05 12:45 50.08402 8.69345 2603 ft 151 kts 250°
2026-05-05 12:45 50.07995 8.67642 2454 ft 177 kts 250°
2026-05-05 12:45 50.07579 8.65905 2184 ft 165 kts 250°
2026-05-05 12:46 50.07192 8.64285 1916 ft 155 kts 250°
2026-05-05 12:46 50.06950 8.63273 1795 ft 153 kts 249°
2026-05-05 12:46 50.06575 8.61716 1595 ft 154 kts 249°
2026-05-05 12:46 50.06323 8.60678 1443 ft 156 kts 249°
2026-05-05 12:47 50.05932 8.59094 1124 ft 156 kts 247°
2026-05-05 12:47 50.05566 8.57532 896 ft 152 kts 254°
2026-05-05 12:47 50.05214 8.55983 693 ft 151 kts 248°
2026-05-05 12:47 50.04848 8.54449 512 ft 151 kts 247°
2026-05-05 12:48 50.04482 8.52928 371 ft 151 kts 249°
2026-05-05 12:48 50.04146 8.51550 337 ft 113 kts 250°
2026-05-05 12:48 50.03933 8.50678 325 ft 63 kts 249°
2026-05-05 12:48 50.03753 8.50268 323 ft 32 kts 220°
2026-05-05 12:49 50.03642 8.50201 322 ft 14 kts 142°
2026-05-05 12:49 50.03638 8.50326 323 ft 11 kts 75°
2026-05-05 12:49 50.03663 8.50435 327 ft 11 kts 66°
2026-05-05 12:49 50.03691 8.50543 329 ft 11 kts 71°
2026-05-05 12:50 50.03715 8.50653 329 ft 11 kts 70°
2026-05-05 12:50 50.03748 8.50795 330 ft 18 kts 70°
2026-05-05 12:50 50.03796 8.50988 331 ft 19 kts 68°
2026-05-05 12:50 50.03841 8.51183 335 ft 19 kts 70°
2026-05-05 12:51 50.03887 8.51376 336 ft 18 kts 70°
2026-05-05 12:51 50.03933 8.51563 338 ft 18 kts 69°
2026-05-05 12:51 50.03978 8.51751 350 ft 18 kts 71°
2026-05-05 12:51 50.04023 8.51938 352 ft 18 kts 70°
2026-05-05 12:52 50.04066 8.52124 353 ft 18 kts 70°
2026-05-05 12:52 50.04111 8.52312 357 ft 18 kts 69°
2026-05-05 12:52 50.04158 8.52498 358 ft 18 kts 68°
2026-05-05 12:52 50.04205 8.52684 359 ft 18 kts 69°
2026-05-05 12:53 50.04246 8.52874 365 ft 18 kts 70°
2026-05-05 12:53 50.04291 8.53061 366 ft 18 kts 69°
2026-05-05 12:53 50.04337 8.53248 365 ft 18 kts 69°
2026-05-05 12:53 50.04382 8.53433 371 ft 18 kts 70°
2026-05-05 12:54 50.04414 8.53829 371 ft 18 kts 84°
2026-05-05 12:54 50.04427 8.54029 373 ft 18 kts 84°
2026-05-05 12:54 50.04442 8.54227 373 ft 18 kts 83°
2026-05-05 12:55 50.04452 8.54426 367 ft 18 kts 90°
2026-05-05 12:55 50.04419 8.54617 369 ft 18 kts 118°
2026-05-05 12:55 50.04331 8.54752 374 ft 17 kts 148°
2026-05-05 12:55 50.04225 8.54821 368 ft 16 kts 159°
2026-05-05 12:56 50.04120 8.54880 371 ft 16 kts 160°
2026-05-05 12:56 50.04014 8.54938 368 ft 16 kts 160°
2026-05-05 12:56 50.03911 8.55005 367 ft 16 kts 158°
2026-05-05 12:56 50.03852 8.55106 371 ft 14 kts 81°
2026-05-05 12:57 50.03880 8.55247 371 ft 14 kts 69°
2026-05-05 12:57 50.03913 8.55385 369 ft 14 kts 69°
2026-05-05 12:57 50.03947 8.55523 368 ft 14 kts 69°
2026-05-05 12:57 50.03980 8.55662 370 ft 14 kts 69°
2026-05-05 12:58 50.04013 8.55800 369 ft 14 kts 70°
2026-05-05 12:58 50.04045 8.55939 369 ft 14 kts 70°
2026-05-05 12:58 50.04078 8.56080 370 ft 15 kts 69°
2026-05-05 12:58 50.04126 8.56274 369 ft 24 kts 69°
2026-05-05 12:59 50.04183 8.56519 371 ft 24 kts 69°
2026-05-05 12:59 50.04243 8.56762 370 ft 24 kts 69°
2026-05-05 12:59 50.04301 8.57007 373 ft 24 kts 70°
2026-05-05 13:00 50.04415 8.57482 371 ft 20 kts 69°
2026-05-05 13:00 50.04519 8.57540 371 ft 19 kts 340°
2026-05-05 13:01 50.04669 8.57740 373 ft 11 kts 70°
2026-05-05 13:01 50.04697 8.57854 372 ft 11 kts 68°
2026-05-05 13:01 50.04748 8.57945 372 ft 11 kts 41°
2026-05-05 13:01 50.04798 8.58036 375 ft 11 kts 62°
2026-05-05 13:02 50.04825 8.58152 372 ft 11 kts 70°
2026-05-05 13:02 50.04854 8.58268 369 ft 11 kts 67°
2026-05-05 13:02 50.04882 8.58384 372 ft 11 kts 70°
2026-05-05 13:02 50.04910 8.58500 369 ft 11 kts 68°
2026-05-05 13:03 50.04938 8.58616 372 ft 11 kts 69°
2026-05-05 13:03 50.04983 8.58683 374 ft 9 kts
2026-05-05 13:03 50.05029 8.58648 370 ft 5 kts 338°
2026-05-05 13:03 50.05041 8.58641 367 ft 0 kts 339°